Weather in Kostino

Russia / Ryazan Oblast     54°48′17″N   39°40′03″E
temp.,
°C
wind,
m/s
gust,
m/s
humid.,
%
clouds,
%
prec.,
mm/h
press.,
hPa
HPBL,
m
1 march, mon
mon100:00−9ne229592 0.0 102125
03:00−11n129557 0.0 102321
06:00−12nw119738 0.0 102421
09:00−9w119546 0.0 102540
12:00−4wsw349288 0.0 1024312
15:00−1wsw579292 0.1 1023580
18:00−2wsw41090100 0.0 1021526
21:000wsw51292100 0.1 1019611
2 march, tue
tue200:00+1wsw61292100 0.0 1015558
03:00+1w61293100 0.0 1014580
06:00+1w61294100 0.0 1010704
09:00+1wnw61299100 0.1 1009573
12:00+1wnw51195100 0.2 1008704
15:00+1wnw5108970 0.3 1008818
18:00−2nw4108868 0.1 1008274
21:00−1nw4118978 0.1 1009585
3 march, wed
wed300:00−2nw51194100 0.1 1010561
03:00−3nw61289100 0.3 1011753
06:00−6nw51387100 0.1 1012662
09:00−5nw6128799 0.1 1014784
12:00−3nnw6117466 0.0 10151029
15:00−1nw698366 0.1 10151009
18:00−1wnw51192100 0.1 1013740
21:00−2wnw41093100 0.3 1014561
4 march, thu
thu400:00−3w5119296 0.1 1013407
03:00−2wsw6129196 0.1 1011607
06:00−3wsw61489100 0.0 1007523
09:00−1wsw81787100 0.0 1004708
12:00+1wsw81485100 0.0 10011115
15:00+1wsw71386100 0.1 10001102
18:000w81593100 0.1 997944
21:000w71589100 0.3 998859
5 march, fri
fri500:00−3nw5118798 0.3 1001462
03:00−6nw389451 0.3 1005192
06:00−8wnw23960 0.0 100868
09:00−7wnw24930 0.0 1009161
12:00−3nw23790 0.0 1011529
15:00−2wnw227713 0.0 1012678
18:00−6wsw229098 0.0 101331
21:00−7ssw018998 0.0 101421